Location: *
(43.9900°N, 3.4811°E)
Time: 00:11:20
(UTC+00:00)

MTI - Pass Details

Date: 25 August 2019
Orbit: 399 x 411 km, 97.5° (Epoch: 23 October)

Event Time Altitude Azimuth Distance (km) Brightness Sun altitude
Rises 20:22:02 0° 16° (NNE) 2,358 7.8 -18.2°
Reaches altitude 10° 20:24:04 10° 21° (NNE) 1,489 6.7 -18.5°
Enters shadow 20:26:36 46° 55° (NE) 559 4.2 -18.8°
